Simultaneous Nadir Overpasses (SNOs) Predictions

Prediction of SNOs between AQUA and GOES-15 Satellite Orbit:

Table of predicted SNOs for the next 14.0 days since TLE Epoch: 3/28/2015
Index Date Time (AQUA) AQUA Lat,Lon GOES-15 Lat,Lon Distance(km) Time Diff (sec)
1 03/28/2015 10:44:49 0.51,-137.01 0.02,-134.76 255.92 80
2 03/30/2015 10:32:39 -0.10,-134.05 0.02,-134.68 70.74 80
3 04/01/2015 10:20:29 -0.75,-131.10 0.02,-134.59 397.31 80
4 04/01/2015 22:41:53 -0.39,-136.29 -0.02,-134.54 198.46 80
5 04/03/2015 22:29:42 0.24,-133.33 -0.02,-134.45 127.95 80
6 04/04/2015 10:50:57 0.88,-138.48 0.02,-134.46 457.36 80
7 04/05/2015 22:17:30 0.85,-130.37 -0.02,-134.36 453.94 80
8 04/06/2015 10:38:45 0.26,-135.52 0.02,-134.36 131.59 80
9 04/08/2015 10:26:32 -0.33,-132.55 0.02,-134.26 193.66 80
10 04/08/2015 22:47:56 -0.77,-137.74 -0.02,-134.19 403.23 80
11 04/10/2015 22:35:42 -0.19,-134.77 -0.02,-134.08 78.54 80




NCC Satellite Simultaneous Nadir Overpasses (SNOs) Prediction Service
